This demonstration page uses our WeatherBlox Daily Observations layout. Learn more.

Hourly Observations for August 1, 2017

Temp ( °F °C ) Dew Point ( °F °C ) Humidity (%) Winds ( mph kmh ) Pressure ( in mb ) Visibility ( mi km ) Precip ( " mm )
12:15 am 00:15 Partly Cloudy 65 18.3 63 17 92 92 S 5 7 30.09 1019 10 16.09344 0 0
12:35 am 00:35 Partly Cloudy 65 18.2 63 17 93 93 S 6 9 30.09 1019 10 16.09344 0 0
12:55 am 00:55 Mostly Cloudy 65 18.3 63 17 92 92 S 5 7 30.09 1019 10 16.09344 0 0
1:15 am 01:15 Cloudy 65 18.3 63 17 92 92 S 5 7 30.09 1019 10 16.09344 0 0
1:35 am 01:35 Cloudy 65 18.2 62 16.8 92 92 S 7 11 30.09 1019 10 16.09344 0 0
1:55 am 01:55 Mostly Cloudy 64 18 62 16.5 91 91 SSW 5 7 30.09 1019 10 16.09344 0 0
2:15 am 02:15 Mostly Cloudy 64 17.9 62 16.5 92 92 S 6 9 30.09 1019 10 16.09344 0 0
2:35 am 02:35 Mostly Cloudy 64 17.7 61 16.3 92 92 SSW 3 6 30.09 1019 10 16.09344 0 0
2:55 am 02:55 Cloudy 64 17.6 61 16.3 92 92 SSW 5 7 30.06 1018 10 16.09344 0 0
3:15 am 03:15 Mostly Cloudy 64 17.5 61 16.2 92 92 SW 5 7 30.06 1018 10 16.09344 0 0
3:35 am 03:35 Partly Cloudy 63 17.2 61 16.1 93 93 SSW 3 6 30.06 1018 7 11.265408 0 0
3:55 am 03:55 Partly Cloudy 63 17.1 61 16 93 93 S 3 6 30.09 1019 7 11.265408 0 0
4:15 am 04:15 Mostly Cloudy 63 17.1 61 16.2 94 94 Calm 30.09 1019 7 11.265408 0 0
4:35 am 04:35 Cloudy 63 17.1 61 16.2 94 94 Calm 30.09 1019 7 11.265408 0 0
4:55 am 04:55 Partly Cloudy 63 17.1 61 16.2 94 94 Calm 30.09 1019 7 11.265408 0 0
5:15 am 05:15 Partly Cloudy with Mist and Fog 62 16.5 60 15.6 94 94 Calm 30.09 1019 5 8.04672 0 0
5:35 am 05:35 Mostly Cloudy with Mist and Fog 62 16.6 60 15.8 95 95 Calm 30.09 1019 5 8.04672 0 0
5:55 am 05:55 Partly Cloudy with Mist and Fog 62 16.5 60 15.7 95 95 Calm 30.09 1019 5 8.04672 0 0
6:15 am 06:15 Clear with Mist and Fog 62 16.5 60 15.8 96 96 Calm 30.09 1019 4 6.437376 0 0
6:35 am 06:35 Mostly Cloudy with Mist and Fog 62 16.5 60 15.8 96 96 Calm 30.09 1019 4 6.437376 0 0
6:55 am 06:55 Partly Cloudy with Mist and Fog 62 16.5 60 15.6 94 94 SSE 3 6 30.09 1019 3 4.828032 0 0
7:15 am 07:15 Partly Cloudy with Mist and Fog 62 16.5 60 15.8 96 96 SSE 3 6 30.09 1019 3 4.828032 0 0
7:35 am 07:35 Partly Cloudy with Mist and Fog 63 17 61 16.3 96 96 S 3 6 30.09 1019 4 6.437376 0 0
7:55 am 07:55 Partly Cloudy with Mist and Fog 64 17.5 62 16.5 94 94 Calm 30.06 1018 5 8.04672 0 0
8:15 am 08:15 Partly Cloudy with Mist and Fog 64 18 63 17 94 94 Calm 30.06 1018 5 8.04672 0 0
8:35 am 08:35 Partly Cloudy with Mist and Fog 66 19.1 64 17.7 92 92 SW 5 7 30.09 1019 5 8.04672 0 0
8:55 am 08:55 Partly Cloudy 68 20.1 64 17.9 87 87 SW 5 7 30.09 1019 10 16.09344 0 0
9:15 am 09:15 Mostly Cloudy 69 20.4 64 17.6 84 84 SW 3 6 30.09 1019 10 16.09344 0 0
9:35 am 09:35 Mostly Cloudy 70 21 63 17.4 80 80 SSW 5 7 30.06 1018 10 16.09344 0 0
9:55 am 09:55 Partly Cloudy 70 21.3 64 17.9 81 81 SW 3 6 30.06 1018 10 16.09344 0 0
10:15 am 10:15 Partly Cloudy 71 21.5 65 18.1 81 81 SSW 3 6 30.06 1018 10 16.09344 0 0
10:35 am 10:35 Partly Cloudy 72 22.2 65 18.4 79 79 Calm 30.06 1018 10 16.09344 0 0
10:55 am 10:55 Partly Cloudy 72 22.4 65 18.1 77 77 WSW 3 6 30.06 1018 10 16.09344 0 0
11:15 am 11:15 Partly Cloudy 74 23.2 65 18.6 75 75 Calm 30.06 1018 10 16.09344 0 0
11:35 am 11:35 Partly Cloudy 74 23.5 64 17.8 70 70 S 3 6 30.06 1018 10 16.09344 0 0
11:55 am 11:55 Sunny 75 23.9 63 17.4 67 67 ESE 3 6 30.06 1018 10 16.09344 0 0
12:15 pm 12:15 Partly Cloudy 76 24.2 64 18 68 68 Calm 30.06 1018 10 16.09344 0 0
12:35 pm 12:35 Partly Cloudy 76 24.6 64 17.9 66 66 ESE 6 9 30.06 1018 10 16.09344 0 0
12:55 pm 12:55 Mostly Cloudy 76 24.3 64 18 68 68 ESE 5 7 30.06 1018 10 16.09344 0 0
1:15 pm 13:15 Mostly Cloudy 77 25.1 64 17.5 63 63 ESE 5 7 30.03 1017 10 16.09344 0 0
1:35 pm 13:35 Partly Cloudy 78 25.4 64 17.8 63 63 Calm 30.03 1017 10 16.09344 0 0
1:55 pm 13:55 Partly Cloudy 78 25.8 64 17.7 61 61 Calm 30.03 1017 10 16.09344 0 0
2:15 pm 14:15 Mostly Cloudy 79 26 65 18.1 62 62 E 3 6 30.03 1017 10 16.09344 0 0
2:35 pm 14:35 Mostly Cloudy 79 25.9 64 17.5 60 60 NE 3 6 30.03 1017 10 16.09344 0 0
2:55 pm 14:55 Mostly Cloudy 79 26.1 63 17.4 59 59 Calm 30 1016 10 16.09344 0 0
3:15 pm 15:15 Partly Cloudy 80 26.4 64 17.5 58 58 Calm 30 1016 10 16.09344 0 0
3:35 pm 15:35 Partly Cloudy 80 26.7 64 18 59 59 E 5 7 30 1016 10 16.09344 0 0
3:55 pm 15:55 Partly Cloudy 80 26.8 64 18 59 59 E 5 7 30 1016 10 16.09344 0 0
4:15 pm 16:15 Partly Cloudy 81 27.1 64 17.5 56 56 ESE 6 9 30 1016 10 16.09344 0 0
4:35 pm 16:35 Partly Cloudy 81 27.1 63 17.4 55 55 ESE 6 9 30 1016 10 16.09344 0 0
4:55 pm 16:55 Partly Cloudy 80 26.9 62 16.8 54 54 ESE 3 6 30 1016 10 16.09344 0 0
5:15 pm 17:15 Partly Cloudy 81 27 63 17.1 55 55 E 6 9 30 1016 10 16.09344 0 0
5:35 pm 17:35 Sunny 80 26.9 62 16.9 54 54 ESE 5 7 30 1016 10 16.09344 0 0
5:55 pm 17:55 Sunny 80 26.7 63 17.1 56 56 E 6 9 30 1016 10 16.09344 0 0
6:15 pm 18:15 Sunny 80 26.8 63 17.1 55 55 ESE 5 7 30 1016 10 16.09344 0 0
6:35 pm 18:35 Sunny 80 26.7 63 17.2 56 56 SE 7 11 30 1016 10 16.09344 0 0
6:55 pm 18:55 Sunny 76 24.5 62 16.9 63 63 SSE 12 19 30 1016 10 16.09344 0 0
7:15 pm 19:15 Sunny 78 25.8 64 17.5 60 60 ESE 6 9 30 1016 10 16.09344 0 0
7:35 pm 19:35 Sunny 77 25.2 65 18.2 65 65 E 7 11 30 1016 10 16.09344 0 0
7:55 pm 19:55 Sunny 76 24.3 65 18.6 71 71 E 6 9 30.03 1017 10 16.09344 0 0
8:15 pm 20:15 Sunny 73 22.9 66 19.1 79 79 E 6 9 30.03 1017 10 16.09344 0 0
8:35 pm 20:35 Sunny 73 23 65 18.3 75 75 SE 6 9 30.03 1017 10 16.09344 0 0
8:55 pm 20:55 Clear 73 22.9 64 18 74 74 Calm 30.03 1017 10 16.09344 0 0
9:15 pm 21:15 Clear 71 21.9 66 18.8 83 83 Calm 30.03 1017 10 16.09344 0 0
9:35 pm 21:35 Clear 70 21 66 19 88 88 Calm 30.06 1018 10 16.09344 0 0
9:55 pm 21:55 Clear 70 21 66 19.1 89 89 Calm 30.06 1018 10 16.09344 0 0
10:15 pm 22:15 Partly Cloudy 69 20.8 66 19 90 90 NNW 5 7 30.09 1019 10 16.09344 0 0
10:35 pm 22:35 Mostly Cloudy 70 21 65 18.6 86 86 NNW 8 13 30.12 1020 10 16.09344 0 0
10:55 pm 22:55 Partly Cloudy 69 20.3 62 16.4 78 78 NNW 9 15 30.15 1021 10 16.09344 0 0
11:15 pm 23:15 Partly Cloudy 68 20.1 60 15.7 76 76 NNW 6 9 30.12 1020 10 16.09344 0 0
11:35 pm 23:35 Clear 68 19.9 59 15.2 74 74 NW 5 7 30.12 1020 10 16.09344 0 0
11:55 pm 23:55 Clear 67 19.2 59 14.8 76 76 WNW 3 6 30.09 1019 10 16.09344 0 0

Powered by AerisWeather